Time,TemperatureF,DewpointF,PressureIn,WindDirection,WindDirectionDegrees,WindSpeedMPH,WindSpeedGustMPH,Humidity,HourlyPrecipIn,Conditions,Clouds,dailyrainin,SoftwareType,DateUTC
2013-04-10 00:05:00,17.7,14.5,30.06,NW,324,2.0,2.0,87,0.00,,,0.30,Wunderground v.1.15,2013-04-10 06:05:00,
2013-04-10 00:10:00,17.6,14.4,30.06,NW,324,1.0,2.0,87,0.00,,,0.00,Wunderground v.1.15,2013-04-10 06:10:00,
2013-04-10 00:20:00,17.3,14.1,30.07,NW,323,0.0,1.0,87,0.00,,,0.00,Wunderground v.1.15,2013-04-10 06:20:00,
2013-04-10 00:25:00,17.2,14.0,30.07,NW,324,1.0,1.0,87,0.00,,,0.00,Wunderground v.1.15,2013-04-10 06:25:00,
2013-04-10 00:30:00,17.2,14.3,30.07,NW,324,0.0,1.0,88,0.00,,,0.00,Wunderground v.1.15,2013-04-10 06:30:00,
2013-04-10 00:35:00,17.2,14.3,30.07,NW,324,0.0,0.0,88,0.00,,,0.00,Wunderground v.1.15,2013-04-10 06:35:00,
2013-04-10 00:40:00,17.1,13.9,30.07,NW,324,0.0,0.0,87,0.00,,,0.00,Wunderground v.1.15,2013-04-10 06:40:00,
2013-04-10 00:45:00,17.0,13.8,30.07,NW,324,0.0,0.0,87,0.00,,,0.00,Wunderground v.1.15,2013-04-10 06:45:00,
2013-04-10 00:50:00,16.9,13.7,30.08,NW,323,0.0,0.0,87,0.00,,,0.00,Wunderground v.1.15,2013-04-10 06:50:00,
2013-04-10 00:55:00,16.9,13.7,30.08,NW,324,0.0,0.0,87,0.00,,,0.00,Wunderground v.1.15,2013-04-10 06:55:00,
2013-04-10 01:05:00,16.7,13.5,30.09,NW,323,0.0,7.0,87,0.00,,,0.00,Wunderground v.1.15,2013-04-10 07:05:00,
2013-04-10 01:10:00,16.6,13.4,30.09,NW,324,0.0,7.0,87,0.00,,,0.00,Wunderground v.1.15,2013-04-10 07:10:00,
2013-04-10 01:15:00,16.4,13.2,30.09,NW,324,0.0,0.0,87,0.00,,,0.00,Wunderground v.1.15,2013-04-10 07:15:00,
2013-04-10 01:20:00,16.3,13.1,30.09,NW,323,0.0,1.0,87,0.00,,,0.00,Wunderground v.1.15,2013-04-10 07:20:00,
2013-04-10 01:25:00,16.1,12.9,30.09,NW,324,0.0,0.0,87,0.00,,,0.00,Wunderground v.1.15,2013-04-10 07:25:00,
2013-04-10 01:30:00,16.0,12.8,30.10,NW,324,0.0,1.0,87,0.00,,,0.00,Wunderground v.1.15,2013-04-10 07:30:00,
2013-04-10 01:35:00,16.0,13.1,30.10,NW,324,0.0,2.0,88,0.00,,,0.00,Wunderground v.1.15,2013-04-10 07:35:00,
2013-04-10 01:40:00,16.0,13.1,30.10,NW,323,0.0,2.0,88,0.00,,,0.00,Wunderground v.1.15,2013-04-10 07:40:00,
2013-04-10 01:50:00,16.2,13.5,30.11,NW,324,1.0,1.0,89,0.00,,,0.00,Wunderground v.1.15,2013-04-10 07:50:00,
2013-04-10 02:00:00,16.6,13.9,30.11,NW,324,1.0,1.0,89,0.00,,,0.00,Wunderground v.1.15,2013-04-10 08:00:00,
2013-04-10 02:04:00,16.6,13.1,30.11,NW,324,2.0,2.0,86,0.00,,,0.00,Wunderground v.1.15,2013-04-10 08:04:00,
2013-04-10 02:10:00,16.5,12.8,30.11,NNW,327,3.0,3.0,85,0.00,,,0.00,Wunderground v.1.15,2013-04-10 08:10:00,
2013-04-10 02:15:00,16.4,12.4,30.12,NNW,327,3.0,4.0,84,0.00,,,0.00,Wunderground v.1.15,2013-04-10 08:15:00,
2013-04-10 02:20:00,16.4,12.4,30.12,NNW,331,3.0,3.0,84,0.00,,,0.00,Wunderground v.1.15,2013-04-10 08:20:00,
2013-04-10 02:30:00,16.4,12.4,30.12,NNW,332,2.0,3.0,84,0.00,,,0.00,Wunderground v.1.15,2013-04-10 08:30:00,
2013-04-10 02:35:00,16.3,12.3,30.12,NNW,331,2.0,3.0,84,0.00,,,0.00,Wunderground v.1.15,2013-04-10 08:35:00,
2013-04-10 02:40:00,16.4,12.4,30.13,NNW,331,2.0,2.0,84,0.00,,,0.00,Wunderground v.1.15,2013-04-10 08:40:00,
2013-04-10 02:45:00,16.4,12.4,30.13,NNW,331,1.0,2.0,84,0.00,,,0.00,Wunderground v.1.15,2013-04-10 08:45:00,
2013-04-10 02:50:00,16.5,12.8,30.13,NNW,331,1.0,1.0,85,0.00,,,0.00,Wunderground v.1.15,2013-04-10 08:50:00,
2013-04-10 02:55:00,16.6,12.9,30.13,NNW,331,0.0,1.0,85,0.00,,,0.00,Wunderground v.1.15,2013-04-10 08:55:00,
2013-04-10 03:05:00,16.7,12.4,30.13,NNW,331,1.0,1.0,83,0.00,,,0.00,Wunderground v.1.15,2013-04-10 09:05:00,
2013-04-10 03:10:00,16.7,12.4,30.13,NNW,331,0.0,1.0,83,0.00,,,0.00,Wunderground v.1.15,2013-04-10 09:10:00,